Погода в Астапово

Россия / Тульская область     53°44′56″N   36°40′46″E
темп.,
°C
ветер,
м/с
пор.,
м/с
влажн.,
%
обл.,
%
осадки,
мм/ч
давл.,
гПа
погр.,
м
11 мая, вт
вт1100:00+7ссв5147969 0.0 1025352
03:00+6ссв513859 0.0 1024272
06:00+6ссв614865 0.0 1024335
09:00+12св812755 0.0 1023489
12:00+16св8107018 0.0 1023913
15:00+18всв71171100 0.0 10221458
18:00+12юв488493 0.2 1024478
21:00+8вюв36921 0.2 1026104
12 мая, ср
ср1200:00+7вюв38910 0.0 1027141
03:00+5юв22915 0.0 102721
06:00+6св238642 0.0 102764
09:00+9ссв3579100 0.0 1025331
12:00+8сз3797100 2.6 1021307
15:00+10вюв3897100 9.9 1015568
18:00+7ююв6129387 1.8 1018585
21:00+5в4109625 1.8 1020235
13 мая, чт
чт1300:00+7вюв61592100 0.0 1020398
03:00+7в61692100 0.0 1018427
06:00+9вюв7139495 1.3 1018523
09:00+12ююв587992 1.3 1018845
12:00+16ююв576226 0.0 10171527
15:00+16ююв3570100 0.1 1017825
18:00+16юв347198 0.1 1016896
21:00+11ююв348977 0.1 101754
14 мая, пт
пт1400:00+10ююв36922 0.0 101789
03:00+9юв3592100 0.0 101770
06:00+11в3888100 0.0 1017190
09:00+16юв6108090 0.4 1016398
12:00+19юв7975100 2.6 10151035
15:00+20юв697493 4.7 10141122
18:00+19ююв6118095 2.4 1012676
21:00+16ю389294 7.3 1012141
15 мая, сб
сб1500:00+15ю349371 0.0 101151
03:00+14юв2596100 0.6 1011118
06:00+15вюв4692100 2.9 101099
09:00+17ю5885100 3.1 1011534
12:00+17ююз248521 0.6 1011381
15:00+21ю686912 1.1 10091225
18:00
21:00+15вюв1188100 4.8 100914